IRIDIUM 106 1 41917U 17003A 26167.18849787 .00000016 00000+0 -12929-5 0 9992 2 41917 86.3962 88.9738 0001749 85.0731 275.0664 14.34217520493067 IRIDIUM 103 1 41918U 17003B 26167.17581347 .00000071 00000+0 18242-4 0 9990 2 41918 86.3963 88.8789 0002320 77.9733 282.1723 14.34217826493088 IRIDIUM 109 1 41919U 17003C 26167.18215638 .00000004 00000+0 -56513-5 0 9990 2 41919 86.3962 88.9356 0002150 82.7629 277.3812 14.34217418493057 IRIDIUM 102 1 41920U 17003D 26167.15044203 .00000108 00000+0 31360-4 0 9993 2 41920 86.3961 88.8724 0002221 86.0580 274.0870 14.34218421493130 IRIDIUM 105 1 41921U 17003E 26167.17880850 .00000187 00000+0 59753-4 0 9995 2 41921 86.3965 57.2920 0002495 82.9836 277.1643 14.34219410494991 IRIDIUM 104 1 41922U 17003F 26167.16312875 .00000043 00000+0 82250-5 0 9992 2 41922 86.3963 88.9097 0002466 80.6641 279.4834 14.34217747493125 IRIDIUM 114 1 41923U 17003G 26167.16947087 .00000055 00000+0 12542-4 0 9991 2 41923 86.3962 88.8903 0002325 80.8934 279.2525 14.34217856493105 IRIDIUM 108 1 41924U 17003H 26167.19775875 .00000140 00000+0 42789-4 0 9990 2 41924 86.3960 57.1741 0002226 86.4845 273.6605 14.34218800494968 IRIDIUM 112 1 41925U 17003J 26167.15678625 .00000035 00000+0 55143-5 0 9994 2 41925 86.3959 88.7377 0002336 83.5331 276.6131 14.34217467493124 IRIDIUM 111 1 41926U 17003K 26167.14410959 .00000219 00000+0 71266-4 0 9995 2 41926 86.3961 88.8135 0002248 82.6102 277.5349 14.34217448493107 IRIDIUM 113 1 42803U 17039A 26166.98452777 .00000025 00000+0 17735-5 0 9991 2 42803 86.3968 322.6814 0002272 89.3595 270.7861 14.34217755471010 IRIDIUM 123 1 42804U 17039B 26167.02600520 .00000111 00000+0 32494-4 0 9993 2 42804 86.3971 354.1226 0001998 85.3845 274.7579 14.34218006469781 IRIDIUM 120 1 42805U 17039C 26167.18748924 .00000207 00000+0 66853-4 0 9994 2 42805 86.3958 322.3792 0002019 95.0212 265.1214 14.34216200471038 IRIDIUM 115 1 42806U 17039D 26167.14793300 .00000165 00000+0 42922-4 0 9993 2 42806 86.4495 322.5242 0001990 90.3852 269.7577 14.43282605474119 IRIDIUM 118 1 42807U 17039E 26166.98794791 .00000147 00000+0 45588-4 0 9991 2 42807 86.3971 354.1367 0002182 88.4761 271.6685 14.34219145469775 IRIDIUM 117 1 42808U 17039F 26167.00697779 .00000005 00000+0 -53362-5 0 9998 2 42808 86.3969 354.0865 0002003 86.7773 273.3652 14.34217701469804 IRIDIUM 126 1 42809U 17039G 26167.03234669 .00000195 00000+0 62503-4 0 9992 2 42809 86.3970 354.1269 0002213 85.2471 274.8978 14.34219081469785 IRIDIUM 124 1 42810U 17039H 26167.08175713 .00000268 00000+0 73772-4 0 9994 2 42810 86.4482 290.8210 0002183 93.2039 266.9411 14.43281670474955 IRIDIUM 128 1 42811U 17039J 26167.09285507 .00000042 00000+0 80666-5 0 9990 2 42811 86.3968 25.6079 0001990 87.9537 272.1887 14.34217888469825 IRIDIUM 121 1 42812U 17039K 26166.98160684 .00000138 00000+0 42066-4 0 9993 2 42812 86.3972 354.1759 0002110 90.8252 269.3185 14.34218588469656 IRIDIUM 133 1 42955U 17061A 26166.98503058 .00000038 00000+0 63979-5 0 9998 2 42955 86.3970 25.7707 0002099 86.0703 274.0733 14.34217086454603 IRIDIUM 100 1 42956U 17061B 26166.97868772 .00000082 00000+0 22056-4 0 9994 2 42956 86.3968 25.6921 0002156 87.1230 273.0212 14.34216985454607 IRIDIUM 122 1 42957U 17061C 26167.15628144 .00000058 00000+0 13524-4 0 9996 2 42957 86.3967 25.6179 0002146 83.2552 276.8888 14.34217859454639 IRIDIUM 129 1 42958U 17061D 26167.04211519 -.00000040 00000+0 -21316-4 0 9990 2 42958 86.3966 25.7326 0002300 85.1466 274.9992 14.34217409454637 IRIDIUM 119 1 42959U 17061E 26167.14993891 .00000031 00000+0 39209-5 0 9991 2 42959 86.3969 25.6835 0002229 83.9986 276.1463 14.34217775454664 IRIDIUM 107 1 42960U 17061F 26167.02942801 .00000154 00000+0 47870-4 0 9993 2 42960 86.3970 25.7551 0001967 82.0113 278.1306 14.34218626454657 IRIDIUM 132 1 42961U 17061G 26167.10554101 .00000055 00000+0 12596-4 0 9992 2 42961 86.3969 25.7028 0002169 85.1161 275.0283 14.34217581454667 IRIDIUM 136 1 42962U 17061H 26167.13726308 .00000209 00000+0 67623-4 0 9998 2 42962 86.3970 25.6961 0002176 88.2419 271.9026 14.34219233454681 IRIDIUM 139 1 42963U 17061J 26167.14359582 .00000067 00000+0 16884-4 0 9991 2 42963 86.3970 25.7554 0002065 87.0773 273.0659 14.34218041454690 IRIDIUM 125 1 42964U 17061K 26166.99137854 .00000144 00000+0 44213-4 0 9993 2 42964 86.3973 25.8801 0002226 73.0530 287.0909 14.34213845454684 IRIDIUM 135 1 43070U 17083A 26167.17480527 .00000011 00000+0 -30742-5 0 9992 2 43070 86.3960 322.4388 0002057 91.4541 268.6890 14.34217533444000 IRIDIUM 138 1 43071U 17083B 26166.92110122 -.00000025 00000+0 -16001-4 0 9993 2 43071 86.3973 322.2401 0002215 87.3565 272.7884 14.34217207443955 IRIDIUM 116 1 43072U 17083C 26167.16846196 .00000031 00000+0 39559-5 0 9997 2 43072 86.3962 322.4273 0001953 98.3378 261.8039 14.34217848444026 IRIDIUM 130 1 43073U 17083D 26167.13674803 .00000079 00000+0 21129-4 0 9994 2 43073 86.3970 322.7158 0001958 91.9869 268.1551 14.34218223443969 IRIDIUM 151 1 43074U 17083E 26167.18114780 .00000014 00000+0 -20699-5 0 9995 2 43074 86.3965 322.4797 0002147 92.6761 267.4681 14.34217652443994 IRIDIUM 134 1 43075U 17083F 26167.14943440 .00000002 00000+0 -64438-5 0 9991 2 43075 86.3962 322.5012 0001979 91.2056 268.9367 14.34217593443954 IRIDIUM 137 1 43076U 17083G 26167.16211958 .00000039 00000+0 67250-5 0 9990 2 43076 86.3967 322.5885 0002240 103.8656 256.2789 14.34217947444026 IRIDIUM 141 1 43077U 17083H 26166.94647139 .00000030 00000+0 38176-5 0 9996 2 43077 86.3961 322.5093 0002201 90.8914 269.2534 14.34217929443998 IRIDIUM 153 1 43078U 17083J 26167.10795662 .00000013 00000+0 -23023-5 0 9998 2 43078 86.3959 290.9220 0002260 89.8984 270.2470 14.34217573445129 IRIDIUM 131 1 43079U 17083K 26166.86401575 .00000141 00000+0 43115-4 0 9992 2 43079 86.3968 322.7297 0002217 92.0861 268.0589 14.34219103443912 IRIDIUM 144 1 43249U 18030A 26166.83522286 .00000087 00000+0 24000-4 0 9995 2 43249 86.3958 290.9653 0002106 96.4936 263.6500 14.34218493429942 IRIDIUM 149 1 43250U 18030B 26167.05087345 -.00000034 00000+0 -19163-4 0 9992 2 43250 86.3953 290.8423 0002143 93.8779 266.2662 14.34217175429999 IRIDIUM 157 1 43251U 18030C 26166.86059511 .00000004 00000+0 -58006-5 0 9991 2 43251 86.3955 290.9750 0002071 94.3015 265.8417 14.34217538429946 IRIDIUM 140 1 43252U 18030D 26167.08892850 .00000006 00000+0 -50106-5 0 9993 2 43252 86.3955 290.8921 0002029 93.7050 266.4377 14.34217485430036 IRIDIUM 145 1 43253U 18030E 26167.07624295 .00000034 00000+0 52355-5 0 9997 2 43253 86.3958 290.8695 0001967 100.9654 259.1763 14.34217515429961 IRIDIUM 146 1 43254U 18030F 26167.05721466 .00000072 00000+0 18538-4 0 9990 2 43254 86.3957 290.8897 0002115 96.6727 263.4709 14.34218161429970 IRIDIUM 148 1 43255U 18030G 26167.09527140 .00000046 00000+0 92125-5 0 9994 2 43255 86.3959 290.9169 0002251 96.5187 263.6265 14.34217766430012 IRIDIUM 142 1 43256U 18030H 26167.06355799 .00000035 00000+0 52737-5 0 9994 2 43256 86.3955 290.8190 0002073 98.6689 261.4742 14.34217473429978 IRIDIUM 150 1 43257U 18030J 26167.10161387 .00000017 00000+0 -10909-5 0 9994 2 43257 86.3958 290.9195 0002140 93.4911 266.6530 14.34217546430003 IRIDIUM 143 1 43258U 18030K 26167.08258575 .00000071 00000+0 18334-4 0 9996 2 43258 86.3961 291.0200 0002072 96.3940 263.7491 14.34217471429936 IRIDIUM 161 1 43478U 18047C 26167.19836157 .00000281 00000+0 77639-4 0 9994 2 43478 86.4482 88.8846 0002520 84.6909 275.4579 14.43282520424995 IRIDIUM 152 1 43479U 18047D 26167.19484069 .00000093 00000+0 26195-4 0 9998 2 43479 86.3959 88.7473 0002327 82.9531 277.1929 14.34218238422346 IRIDIUM 147 1 43480U 18047E 26167.06164679 .00000036 00000+0 58982-5 0 9995 2 43480 86.3960 88.8081 0002145 85.6874 274.4567 14.34217628422322 IRIDIUM 110 1 43481U 18047F 26167.13775877 .00000086 00000+0 23817-4 0 9995 2 43481 86.3961 88.8680 0002575 82.7330 277.4158 14.34217125422322 IRIDIUM 162 1 43482U 18047G 26167.19207109 .00000285 00000+0 78622-4 0 9995 2 43482 86.4482 88.7784 0002269 82.4099 277.7359 14.43281182424989 IRIDIUM 160 1 43569U 18061A 26167.15336203 .00000077 00000+0 20356-4 0 9991 2 43569 86.3963 57.2298 0002259 85.3720 274.7734 14.34218039413221 IRIDIUM 166 1 43570U 18061B 26167.17873244 .00000038 00000+0 66612-5 0 9999 2 43570 86.3963 57.1697 0002103 86.2993 273.8444 14.34217728413250 IRIDIUM 158 1 43571U 18061C 26167.14701919 .00000077 00000+0 20388-4 0 9998 2 43571 86.3962 57.1928 0002184 82.2197 277.9246 14.34217978413216 IRIDIUM 165 1 43572U 18061D 26167.17238897 .00000101 00000+0 29130-4 0 9994 2 43572 86.3964 57.2287 0002060 86.3026 273.8405 14.34217515413249 IRIDIUM 155 1 43573U 18061E 26167.13433432 .00000035 00000+0 55632-5 0 9996 2 43573 86.3959 57.1136 0002105 82.4371 277.7064 14.34217634413208 IRIDIUM 154 1 43574U 18061F 26167.18507230 .00000217 00000+0 70429-4 0 9992 2 43574 86.3974 57.2275 0002247 92.9855 267.1598 14.34214747413264 IRIDIUM 163 1 43575U 18061G 26167.16604358 .00000064 00000+0 15849-4 0 9995 2 43575 86.3960 57.1492 0002257 83.2786 276.8666 14.34216448413237 IRIDIUM 156 1 43576U 18061H 26167.14067606 .00000136 00000+0 41373-4 0 9994 2 43576 86.3960 57.1672 0002070 82.2112 277.9319 14.34217987413228 IRIDIUM 164 1 43577U 18061J 26167.19141602 .00000131 00000+0 39576-4 0 9996 2 43577 86.3962 57.1862 0002095 88.9353 271.2082 14.34218640413275 IRIDIUM 159 1 43578U 18061K 26167.15970503 .00000079 00000+0 21193-4 0 9990 2 43578 86.3960 57.1361 0002276 83.4547 276.6908 14.34217705413237 IRIDIUM 180 1 43922U 19002A 26167.01966235 .00000196 00000+0 62804-4 0 9995 2 43922 86.3971 354.0857 0002242 88.8277 271.3176 14.34218786388828 IRIDIUM 176 1 43923U 19002B 26166.93552693 .00000659 00000+0 10057-3 0 9991 2 43923 86.6090 354.0646 0002265 92.3052 267.8424 14.72265647399060 IRIDIUM 168 1 43924U 19002C 26167.08308831 .00000051 00000+0 11109-4 0 9998 2 43924 86.3974 354.1365 0002175 88.9964 271.1480 14.34218285388816 IRIDIUM 173 1 43925U 19002D 26167.07040296 .00000130 00000+0 39302-4 0 9999 2 43925 86.3968 354.0306 0002186 87.0515 273.0931 14.34218580388795 IRIDIUM 169 1 43926U 19002E 26167.13935208 .00000239 00000+0 71704-4 0 9995 2 43926 86.4224 25.6315 0001889 72.1552 287.9852 14.38608568390071 IRIDIUM 172 1 43927U 19002F 26167.06406060 .00000141 00000+0 43313-4 0 9994 2 43927 86.3969 354.0413 0002249 88.8288 271.3165 14.34218142388809 IRIDIUM 175 1 43928U 19002G 26166.88954554 .00000267 00000+0 72771-4 0 9999 2 43928 86.4511 291.0634 0002328 183.2866 176.8320 14.43612042398797 IRIDIUM 171 1 43929U 19002H 26167.04503329 .00000186 00000+0 59483-4 0 9994 2 43929 86.3978 354.3553 0002007 89.7262 270.4163 14.34218074388793 IRIDIUM 170 1 43930U 19002J 26167.00967498 .00000652 00000+0 99469-4 0 9999 2 43930 86.6091 354.0360 0002349 88.9217 271.2269 14.72266193399084 IRIDIUM 167 1 43931U 19002K 26167.03869034 .00000014 00000+0 -21562-5 0 9993 2 43931 86.3967 354.0742 0001763 90.8547 269.2850 14.34217661388798 IRIDIUM 181 1 56726U 23068S 26167.13584233 .00000384 00000+0 10816-3 0 9999 2 56726 86.4500 57.2300 0002350 88.4935 271.6535 14.43312160162288 IRIDIUM 177 1 56727U 23068T 26167.17334884 .00000922 00000+0 11782-3 0 9990 2 56727 86.1961 329.2729 0002366 87.0544 273.0947 14.80228723166214 IRIDIUM 174 1 56728U 23068U 26167.06530265 .00000671 00000+0 10254-3 0 9994 2 56728 86.6098 354.1601 0002468 84.0365 276.1133 14.72262603165854 IRIDIUM 178 1 56729U 23068V 26167.09488119 .00000836 00000+0 10663-3 0 9995 2 56729 86.6538 25.8167 0002636 86.0088 274.1435 14.80232140166209 IRIDIUM 179 1 56730U 23068W 26167.15708190 .00000811 00000+0 10327-3 0 9998 2 56730 86.6779 34.7675 0002431 88.6802 271.4698 14.80235775166215